Darstellungsparameter: Aktuell verwendete Einstellungen:
Skalierung der Graphiken ... ?
xyx+y,   Skalierungsfaktor:      Skalierung: Modus: x, Faktor: 1
Darstellungszeitraum ... ?
Vom - - bis: - -   Zeitraum: 20.06.2010 - 22.06.2010
Min/Max/Avg-Anzeige ... ?
Zeige MMA aktuell
Zeige MMA Monat
Zeige MMA alles
Zeige --A aktuell
Zeige --A Monat
Zeige --A alles
Keine MMA-Anzeige
MMA:
Minimum Maximum Average (ber die Originaldaten)
MMA-Basis: 14.04.2020 - 16.05.2020
Quicknavigation für Darstellung... ?
Tage:      1T, 2T, 3T, 5T -1T -2T -3T -5T +1T +2T +3T +5T
Wochen: 1W, 2W, 3W -1W -2W -3W +1W +2W +3W
Monate: 1M, 3M, 6M -1M -3M -6M +1M +3M +6M
Jahre:    1J, 3J, 5J, 10J -1J -3J -5J -10J +1J +3J +5J +10J
Nutze für die Darstellung ... ?
Originaldaten oder Mittelwerte auf ...
Stundenbasis Tagesbasis Wochenbasis
Monatsbasis Jahresbasis      Datenbasis: Original-Daten
Darstellen als:
Statistik (Auto) Statistik J:M      Darstellung:
Zur Graphik,    zurück zur Übersicht aller Sensoren.
 
Tabellarische Datenbersicht: ?
 
Sensor: Nr:Datum:Temp:Abs-Feuchte:Windchill:Wind:
Aussen-T/F 1 20-06-2010 00:03:02 11.5 C 6.3 g/m*3 11.5 C 0 km/h
2 20-06-2010 00:15:02 11.2 C 6.28 g/m*3 11.2 C 0 km/h
3 20-06-2010 00:27:02 10.8 C 6.33 g/m*3 10.8 C 0 km/h
4 20-06-2010 00:39:02 10.6 C 6.44 g/m*3 10.6 C 0 km/h
5 20-06-2010 00:51:02 10.5 C 6.4 g/m*3 10.5 C 0 km/h
6 20-06-2010 01:03:01 10.6 C 6.15 g/m*3 10.6 C 0 km/h
7 20-06-2010 01:15:02 10.6 C 5.95 g/m*3 10.6 C 0 km/h
8 20-06-2010 01:27:02 10.5 C 5.92 g/m*3 10.5 C 0 km/h
9 20-06-2010 01:40:01 10.4 C 5.88 g/m*3 10.4 C 0 km/h
10 20-06-2010 01:52:01 10.2 C 5.9 g/m*3 10.2 C 0 km/h
11 20-06-2010 02:04:01 10.1 C 5.96 g/m*3 10.1 C 0 km/h
12 20-06-2010 02:16:01 9.8 C 6.03 g/m*3 9.8 C 0 km/h
13 20-06-2010 02:28:01 9.6 C 6.05 g/m*3 9.6 C 0 km/h
14 20-06-2010 02:40:01 9.4 C 6.06 g/m*3 9.4 C 0 km/h
15 20-06-2010 02:52:01 9.3 C 6.2 g/m*3 9.3 C 0 km/h
16 20-06-2010 03:04:01 9.3 C 6.38 g/m*3 9.3 C 0 km/h
17 20-06-2010 03:16:01 9.5 C 6.46 g/m*3 9.5 C 0 km/h
18 20-06-2010 03:28:02 9.6 C 6.6 g/m*3 9.6 C 0 km/h
19 20-06-2010 03:40:02 9.5 C 6.74 g/m*3 9.5 C 0 km/h
20 20-06-2010 03:52:02 9.4 C 6.69 g/m*3 9.4 C 0 km/h
21 20-06-2010 04:04:02 9.1 C 6.74 g/m*3 9.1 C 0 km/h
22 20-06-2010 04:16:02 9.1 C 6.92 g/m*3 9.1 C 0 km/h
23 20-06-2010 04:28:02 9.2 C 7.05 g/m*3 9.2 C 0 km/h
24 20-06-2010 04:40:02 9.4 C 7.15 g/m*3 9.4 C 0 km/h
25 20-06-2010 04:52:02 9.2 C 7.05 g/m*3 9.2 C 0 km/h
Sensor: Nr:Datum:Temp:Abs-Feuchte:Windchill:Wind:
Aussen-T/F 26 20-06-2010 05:04:02 9.2 C 7.05 g/m*3 9.2 C 0 km/h
27 20-06-2010 05:16:02 9.2 C 7.05 g/m*3 9.2 C 0 km/h
28 20-06-2010 05:28:02 9.3 C 7.1 g/m*3 9.3 C 0 km/h
29 20-06-2010 05:40:02 9.4 C 7.15 g/m*3 9.4 C 0 km/h
30 20-06-2010 05:52:02 9.6 C 7.24 g/m*3 9.6 C 0 km/h
31 20-06-2010 06:04:02 9.6 C 7.24 g/m*3 9.6 C 0 km/h
32 20-06-2010 06:16:02 9.7 C 7.28 g/m*3 9.7 C 0 km/h
33 20-06-2010 06:28:02 10.1 C 7.28 g/m*3 10.1 C 0 km/h
34 20-06-2010 06:40:02 10.4 C 7.42 g/m*3 10.4 C 0 km/h
35 20-06-2010 06:52:02 10.6 C 7.32 g/m*3 10.6 C 0 km/h
36 20-06-2010 07:04:02 10.7 C 7.17 g/m*3 10.7 C 0 km/h
37 20-06-2010 07:16:02 10.7 C 7.17 g/m*3 10.7 C 0 km/h
38 20-06-2010 07:28:02 10.4 C 7.32 g/m*3 10.4 C 0 km/h
39 20-06-2010 07:40:02 10.2 C 7.52 g/m*3 10.2 C 0 km/h
40 20-06-2010 07:52:02 10.2 C 7.71 g/m*3 10.2 C 0 km/h
41 20-06-2010 08:04:01 10.3 C 7.85 g/m*3 10.3 C 0 km/h
42 20-06-2010 08:16:02 10.5 C 8.05 g/m*3 10.5 C 0 km/h
43 20-06-2010 08:28:02 10.4 C 8 g/m*3 10.4 C 0 km/h
44 20-06-2010 08:40:01 10.9 C 8.36 g/m*3 10.9 C 0 km/h
45 20-06-2010 08:52:03 10.8 C 8.2 g/m*3 10.8 C 0 km/h
46 20-06-2010 09:04:02 11.4 C 8.21 g/m*3 11.4 C 0 km/h
47 20-06-2010 09:16:03 12.4 C 8.52 g/m*3 12.4 C 0 km/h
48 20-06-2010 09:28:03 12.5 C 7.92 g/m*3 12.5 C 0 km/h
49 20-06-2010 09:40:02 13 C 7.83 g/m*3 13 C 0 km/h
50 20-06-2010 09:52:02 13.1 C 7.53 g/m*3 13.1 C 0 km/h
Sensor: Nr:Datum:Temp:Abs-Feuchte:Windchill:Wind:
Aussen-T/F 51 20-06-2010 10:04:01 13.6 C 7.77 g/m*3 13.6 C 0 km/h
52 20-06-2010 10:16:02 14 C 7.48 g/m*3 14 C 0 km/h
53 20-06-2010 10:28:02 13.7 C 6.99 g/m*3 13.7 C 0 km/h
54 20-06-2010 10:40:02 13.3 C 7.05 g/m*3 13.3 C 0 km/h
55 20-06-2010 10:52:02 13.1 C 6.96 g/m*3 13.1 C 0 km/h
56 20-06-2010 11:04:02 13 C 6.92 g/m*3 13 C 0 km/h
57 20-06-2010 11:16:01 12.6 C 7.08 g/m*3 12.6 C 0 km/h
58 20-06-2010 11:28:01 13.3 C 7.05 g/m*3 13.3 C 0 km/h
59 20-06-2010 11:40:02 14 C 7 g/m*3 14 C 0 km/h
60 20-06-2010 11:52:02 14.3 C 6.63 g/m*3 14.3 C 0 km/h
61 20-06-2010 12:04:02 14.4 C 6.55 g/m*3 14.4 C 0 km/h
62 20-06-2010 12:16:02 14.9 C 6.75 g/m*3 14.9 C 0 km/h
63 20-06-2010 12:28:02 15.3 C 6.53 g/m*3 15.3 C 0 km/h
64 20-06-2010 12:40:02 16.1 C 6.44 g/m*3 16.1 C 0 km/h
65 20-06-2010 12:52:01 15.6 C 6.25 g/m*3 15.6 C 0 km/h
66 20-06-2010 13:04:02 15.3 C 6.53 g/m*3 15.3 C 0 km/h
67 20-06-2010 13:16:01 15.6 C 6.65 g/m*3 15.6 C 0 km/h
68 20-06-2010 13:28:01 15.8 C 6.46 g/m*3 15.8 C 0 km/h
69 20-06-2010 13:40:01 16.9 C 6.33 g/m*3 16.9 C 0 km/h
70 20-06-2010 13:52:01 18.2 C 5.91 g/m*3 18.2 C 0 km/h
71 20-06-2010 14:04:01 16.9 C 5.47 g/m*3 16.9 C 0 km/h
72 20-06-2010 14:16:02 15.7 C 5.89 g/m*3 15.7 C 0 km/h
73 20-06-2010 14:28:02 15.9 C 6.09 g/m*3 15.9 C 0 km/h
74 20-06-2010 14:40:01 17.4 C 6.22 g/m*3 17.4 C 0 km/h
75 20-06-2010 14:52:02 16.7 C 5.68 g/m*3 16.7 C 0 km/h
Sensor: Nr:Datum:Temp:Abs-Feuchte:Windchill:Wind:
Aussen-T/F 76 20-06-2010 15:04:02 17.2 C 5.71 g/m*3 17.2 C 0 km/h
77 20-06-2010 15:16:02 17.6 C 5.85 g/m*3 17.6 C 0 km/h
78 20-06-2010 15:28:02 17.7 C 6.04 g/m*3 17.7 C 0 km/h
79 20-06-2010 15:40:02 18.7 C 6.08 g/m*3 18.7 C 0 km/h
80 20-06-2010 15:52:02 18.1 C 5.72 g/m*3 18.1 C 0 km/h
81 20-06-2010 16:04:02 16.4 C 5.72 g/m*3 16.4 C 0 km/h
82 20-06-2010 16:16:02 16.4 C 5.72 g/m*3 16.4 C 0 km/h
83 20-06-2010 16:28:02 16.7 C 5.97 g/m*3 16.7 C 0 km/h
84 20-06-2010 16:40:03 17.1 C 5.68 g/m*3 17.1 C 0 km/h
85 20-06-2010 16:52:02 17.1 C 5.39 g/m*3 17.1 C 0 km/h
86 20-06-2010 17:04:01 17 C 5.35 g/m*3 17 C 0 km/h
87 20-06-2010 17:16:02 16 C 5.72 g/m*3 16 C 0 km/h
88 20-06-2010 17:28:02 16.2 C 5.79 g/m*3 16.2 C 0 km/h
89 20-06-2010 17:40:02 16 C 5.86 g/m*3 16 C 0 km/h
90 20-06-2010 17:52:02 16.4 C 6.14 g/m*3 16.4 C 0 km/h
91 20-06-2010 18:04:03 16.5 C 6.32 g/m*3 16.5 C 0 km/h
92 20-06-2010 18:16:02 16.2 C 6.34 g/m*3 16.2 C 0 km/h
93 20-06-2010 18:28:02 16.4 C 6.28 g/m*3 16.4 C 0 km/h
94 20-06-2010 18:40:02 16.3 C 6.24 g/m*3 16.3 C 0 km/h
95 20-06-2010 18:52:02 16.2 C 6.07 g/m*3 16.2 C 0 km/h
96 20-06-2010 19:04:02 15.9 C 5.96 g/m*3 15.9 C 0 km/h
97 20-06-2010 19:16:01 15.7 C 5.89 g/m*3 15.7 C 0 km/h
98 20-06-2010 19:28:01 15.4 C 5.91 g/m*3 15.4 C 0 km/h
99 20-06-2010 19:40:02 15.6 C 6.12 g/m*3 15.6 C 0 km/h
100 20-06-2010 19:52:02 15.8 C 6.19 g/m*3 15.8 C 0 km/h
Sensor: Nr:Datum:Temp:Abs-Feuchte:Windchill:Wind:
Aussen-T/F 101 20-06-2010 20:04:02 15.6 C 6.25 g/m*3 15.6 C 0 km/h
102 20-06-2010 20:16:01 15.3 C 6.01 g/m*3 15.3 C 0 km/h
103 20-06-2010 20:28:01 15.2 C 6.1 g/m*3 15.2 C 0 km/h
104 20-06-2010 20:40:02 15.1 C 6.19 g/m*3 15.1 C 0 km/h
105 20-06-2010 20:52:02 15 C 6.28 g/m*3 15 C 0 km/h
106 20-06-2010 21:04:02 14.8 C 6.59 g/m*3 14.8 C 0 km/h
107 20-06-2010 21:16:01 14.7 C 6.55 g/m*3 14.7 C 0 km/h
108 20-06-2010 21:28:01 14.6 C 6.63 g/m*3 14.6 C 0 km/h
109 20-06-2010 21:40:02 14.5 C 6.84 g/m*3 14.5 C 0 km/h
110 20-06-2010 21:52:02 14.3 C 6.76 g/m*3 14.3 C 0 km/h
111 20-06-2010 22:04:02 14.2 C 6.84 g/m*3 14.2 C 0 km/h
112 20-06-2010 22:17:02 14 C 6.75 g/m*3 14 C 0 km/h
113 20-06-2010 22:29:02 13.8 C 6.91 g/m*3 13.8 C 0 km/h
114 20-06-2010 22:41:02 13.5 C 6.9 g/m*3 13.5 C 0 km/h
115 20-06-2010 22:53:02 13.4 C 6.97 g/m*3 13.4 C 0 km/h
116 20-06-2010 23:05:02 13.2 C 6.89 g/m*3 13.2 C 0 km/h
117 20-06-2010 23:17:02 13 C 6.92 g/m*3 13 C 0 km/h
118 20-06-2010 23:29:02 12.6 C 6.97 g/m*3 12.6 C 0 km/h
119 20-06-2010 23:41:02 12.3 C 6.84 g/m*3 12.3 C 0 km/h
120 20-06-2010 23:53:02 12.1 C 6.97 g/m*3 12.1 C 0 km/h
121 21-06-2010 00:05:02 11.9 C 7.1 g/m*3 11.9 C 0 km/h
122 21-06-2010 00:17:02 11.8 C 7.05 g/m*3 11.8 C 0 km/h
123 21-06-2010 00:29:02 11.4 C 6.98 g/m*3 11.4 C 0 km/h
124 21-06-2010 00:41:02 11.2 C 7.1 g/m*3 11.2 C 0 km/h
125 21-06-2010 00:53:03 11.2 C 7.1 g/m*3 11.2 C 0 km/h
Sensor: Nr:Datum:Temp:Abs-Feuchte:Windchill:Wind:
Aussen-T/F 126 21-06-2010 01:05:03 11.1 C 6.95 g/m*3 11.1 C 0 km/h
127 21-06-2010 01:17:03 11.1 C 7.05 g/m*3 11.1 C 0 km/h
128 21-06-2010 01:29:03 11 C 7.01 g/m*3 11 C 0 km/h
129 21-06-2010 01:41:03 10.8 C 7.02 g/m*3 10.8 C 0 km/h
130 21-06-2010 01:53:03 10.7 C 7.07 g/m*3 10.7 C 0 km/h
131 21-06-2010 02:05:03 10.5 C 6.98 g/m*3 10.5 C 0 km/h
132 21-06-2010 02:17:03 10.4 C 7.04 g/m*3 10.4 C 0 km/h
133 21-06-2010 02:29:03 10.1 C 6.9 g/m*3 10.1 C 0 km/h
134 21-06-2010 02:41:03 10.2 C 7.04 g/m*3 10.2 C 0 km/h
135 21-06-2010 02:53:03 10.2 C 6.95 g/m*3 10.2 C 0 km/h
136 21-06-2010 03:05:03 10 C 6.86 g/m*3 10 C 0 km/h
137 21-06-2010 03:17:03 9.8 C 6.87 g/m*3 9.8 C 0 km/h
138 21-06-2010 03:29:03 9.6 C 6.78 g/m*3 9.6 C 0 km/h
139 21-06-2010 03:41:03 9.5 C 6.83 g/m*3 9.5 C 0 km/h
140 21-06-2010 03:53:03 9.3 C 6.74 g/m*3 9.3 C 0 km/h
141 21-06-2010 04:05:03 9.1 C 6.74 g/m*3 9.1 C 0 km/h
142 21-06-2010 04:17:03 9.1 C 6.83 g/m*3 9.1 C 0 km/h
143 21-06-2010 04:29:03 9.2 C 6.97 g/m*3 9.2 C 0 km/h
144 21-06-2010 04:41:03 9.4 C 6.96 g/m*3 9.4 C 0 km/h
145 21-06-2010 04:53:03 9 C 6.79 g/m*3 9 C 0 km/h
146 21-06-2010 05:05:04 8.8 C 6.88 g/m*3 8.8 C 0 km/h
147 21-06-2010 05:17:04 8.7 C 6.83 g/m*3 8.7 C 0 km/h
148 21-06-2010 05:29:04 8.7 C 6.92 g/m*3 8.7 C 0 km/h
149 21-06-2010 05:41:04 8.6 C 6.87 g/m*3 8.6 C 0 km/h
150 21-06-2010 05:53:04 8.6 C 6.96 g/m*3 8.6 C 0 km/h
Sensor: Nr:Datum:Temp:Abs-Feuchte:Windchill:Wind:
Aussen-T/F 151 21-06-2010 06:05:04 8.5 C 7 g/m*3 8.5 C 0 km/h
152 21-06-2010 06:17:04 8.5 C 7 g/m*3 8.5 C 0 km/h
153 21-06-2010 06:29:04 8.6 C 7.13 g/m*3 8.6 C 0 km/h
154 21-06-2010 06:41:04 8.6 C 7.22 g/m*3 8.6 C 0 km/h
155 21-06-2010 06:53:02 8.9 C 7.36 g/m*3 8.9 C 0 km/h
156 21-06-2010 07:05:03 9.1 C 7.36 g/m*3 9.1 C 0 km/h
157 21-06-2010 07:17:03 9.5 C 7.46 g/m*3 9.5 C 0 km/h
158 21-06-2010 07:29:03 9.8 C 7.33 g/m*3 9.8 C 0 km/h
159 21-06-2010 07:41:03 10.6 C 7.22 g/m*3 10.6 C 0 km/h
160 21-06-2010 07:53:02 11.5 C 7.23 g/m*3 11.5 C 0 km/h
161 21-06-2010 08:05:02 12.1 C 7.18 g/m*3 12.1 C 0 km/h
162 21-06-2010 08:17:02 12.3 C 6.95 g/m*3 12.3 C 0 km/h
163 21-06-2010 08:29:02 12.4 C 6.77 g/m*3 12.4 C 0 km/h
164 21-06-2010 08:41:02 12.7 C 6.9 g/m*3 12.7 C 0 km/h
165 21-06-2010 08:53:02 13.2 C 6.77 g/m*3 13.2 C 0 km/h
166 21-06-2010 09:05:01 13.4 C 6.63 g/m*3 13.4 C 0 km/h
167 21-06-2010 09:17:02 13.4 C 6.16 g/m*3 13.4 C 0 km/h
168 21-06-2010 09:29:03 13.7 C 6.39 g/m*3 13.7 C 0 km/h
169 21-06-2010 09:41:01 14.2 C 5.86 g/m*3 14.2 C 0 km/h
170 21-06-2010 09:53:02 14 C 5.43 g/m*3 14 C 0 km/h
171 21-06-2010 10:05:01 13.9 C 5.39 g/m*3 13.9 C 0 km/h
172 21-06-2010 10:17:02 13.9 C 5.63 g/m*3 13.9 C 0 km/h
173 21-06-2010 10:29:02 13.5 C 6.08 g/m*3 13.5 C 0 km/h
174 21-06-2010 10:41:01 13.5 C 5.97 g/m*3 13.5 C 0 km/h
175 21-06-2010 10:53:02 14 C 5.55 g/m*3 14 C 0 km/h
Sensor: Nr:Datum:Temp:Abs-Feuchte:Windchill:Wind:
Aussen-T/F 176 21-06-2010 11:05:02 14.7 C 5.67 g/m*3 14.7 C 0 km/h
177 21-06-2010 11:17:02 14.7 C 5.16 g/m*3 14.7 C 0 km/h
178 21-06-2010 11:29:02 14.2 C 5.13 g/m*3 14.2 C 0 km/h
179 21-06-2010 11:41:02 14.4 C 5.44 g/m*3 14.4 C 0 km/h
180 21-06-2010 11:53:02 15.4 C 5.52 g/m*3 15.4 C 0 km/h
181 21-06-2010 12:05:01 16.3 C 5.27 g/m*3 16.3 C 0 km/h
182 21-06-2010 12:17:02 16.5 C 5.34 g/m*3 16.5 C 0 km/h
183 21-06-2010 12:29:02 16 C 5.18 g/m*3 16 C 0 km/h
184 21-06-2010 12:41:02 14.8 C 5.19 g/m*3 14.8 C 0 km/h
185 21-06-2010 12:53:01 15 C 5.39 g/m*3 15 C 0 km/h
186 21-06-2010 13:05:02 14.7 C 5.29 g/m*3 14.7 C 0 km/h
187 21-06-2010 13:17:01 15.2 C 5.19 g/m*3 15.2 C 0 km/h
188 21-06-2010 13:29:01 16 C 5.04 g/m*3 16 C 0 km/h
189 21-06-2010 13:41:02 18 C 5.07 g/m*3 18 C 0 km/h
190 21-06-2010 13:53:02 19.6 C 4.9 g/m*3 19.6 C 0 km/h
191 21-06-2010 14:05:02 19.3 C 4.81 g/m*3 19.3 C 0 km/h
192 21-06-2010 14:17:01 18.2 C 4.66 g/m*3 18.2 C 0 km/h
193 21-06-2010 14:29:01 18.7 C 4.48 g/m*3 18.7 C 0 km/h
194 21-06-2010 14:41:02 18.9 C 4.86 g/m*3 18.9 C 0 km/h
195 21-06-2010 14:53:02 18 C 4.61 g/m*3 18 C 0 km/h
196 21-06-2010 15:05:02 17.7 C 4.38 g/m*3 17.7 C 0 km/h
197 21-06-2010 15:17:02 18.4 C 4.88 g/m*3 18.4 C 0 km/h
198 21-06-2010 15:29:02 20 C 4.49 g/m*3 20 C 0 km/h
199 21-06-2010 15:41:02 18.7 C 4.8 g/m*3 18.7 C 0 km/h
200 21-06-2010 15:53:02 18.5 C 4.27 g/m*3 18.5 C 0 km/h
Sensor: Nr:Datum:Temp:Abs-Feuchte:Windchill:Wind:
Aussen-T/F 201 21-06-2010 16:05:02 19 C 4.56 g/m*3 19 C 0 km/h
202 21-06-2010 16:17:02 20 C 4.67 g/m*3 20 C 0 km/h
203 21-06-2010 16:29:02 21.2 C 4.63 g/m*3 21.2 C 0 km/h
204 21-06-2010 16:41:02 21 C 4.21 g/m*3 21 C 0 km/h
205 21-06-2010 16:53:02 22.6 C 4.42 g/m*3 22.6 C 0 km/h
206 21-06-2010 17:05:02 21 C 4.03 g/m*3 21 C 0 km/h
207 21-06-2010 17:17:03 20.6 C 4.47 g/m*3 20.6 C 0 km/h
208 21-06-2010 17:29:03 19.3 C 4.64 g/m*3 19.3 C 0 km/h
209 21-06-2010 17:41:02 18.7 C 4.8 g/m*3 18.7 C 0 km/h
210 21-06-2010 17:53:02 18.3 C 5 g/m*3 18.3 C 0 km/h
211 21-06-2010 18:05:02 18.4 C 5.03 g/m*3 18.4 C 0 km/h
212 21-06-2010 18:17:02 18.2 C 4.82 g/m*3 18.2 C 0 km/h
213 21-06-2010 18:29:02 18.4 C 5.03 g/m*3 18.4 C 0 km/h
214 21-06-2010 18:41:02 18.2 C 4.82 g/m*3 18.2 C 0 km/h
215 21-06-2010 18:53:02 18.4 C 5.03 g/m*3 18.4 C 0 km/h
216 21-06-2010 19:05:02 18.2 C 4.97 g/m*3 18.2 C 0 km/h
217 21-06-2010 19:17:02 17.6 C 5.1 g/m*3 17.6 C 0 km/h
218 21-06-2010 19:29:03 17.4 C 5.19 g/m*3 17.4 C 0 km/h
219 21-06-2010 19:41:02 17.3 C 5.3 g/m*3 17.3 C 0 km/h
220 21-06-2010 19:53:02 17.2 C 5.13 g/m*3 17.2 C 0 km/h
221 21-06-2010 20:05:01 17.2 C 5.86 g/m*3 17.2 C 0 km/h
222 21-06-2010 20:17:02 17.2 C 5.71 g/m*3 17.2 C 0 km/h
223 21-06-2010 20:29:02 16.9 C 6.33 g/m*3 16.9 C 0 km/h
224 21-06-2010 20:41:02 16.6 C 6.36 g/m*3 16.6 C 0 km/h
225 21-06-2010 20:53:01 16.2 C 6.48 g/m*3 16.2 C 0 km/h
Sensor: Nr:Datum:Temp:Abs-Feuchte:Windchill:Wind:
Aussen-T/F 226 21-06-2010 21:05:01 16 C 6.4 g/m*3 16 C 0 km/h
227 21-06-2010 21:17:02 15.6 C 6.25 g/m*3 15.6 C 0 km/h
228 21-06-2010 21:29:02 15.2 C 6.1 g/m*3 15.2 C 0 km/h
229 21-06-2010 21:41:01 14.9 C 6.25 g/m*3 14.9 C 0 km/h
230 21-06-2010 21:53:02 14.5 C 5.97 g/m*3 14.5 C 0 km/h
231 21-06-2010 22:05:02 14.2 C 6.11 g/m*3 14.2 C 0 km/h
232 21-06-2010 22:18:03 14 C 6.15 g/m*3 14 C 0 km/h
233 21-06-2010 22:30:03 13.7 C 6.16 g/m*3 13.7 C 0 km/h
234 21-06-2010 22:42:04 13.4 C 6.39 g/m*3 13.4 C 0 km/h
235 21-06-2010 22:54:04 13.4 C 6.28 g/m*3 13.4 C 0 km/h
236 21-06-2010 23:06:04 13.5 C 6.55 g/m*3 13.5 C 0 km/h
237 21-06-2010 23:18:04 13.4 C 6.51 g/m*3 13.4 C 0 km/h
238 21-06-2010 23:30:04 13.4 C 6.51 g/m*3 13.4 C 0 km/h
239 21-06-2010 23:42:04 13.2 C 6.43 g/m*3 13.2 C 0 km/h
240 21-06-2010 23:54:04 13.1 C 6.39 g/m*3 13.1 C 0 km/h
241 22-06-2010 00:06:04 12.8 C 6.5 g/m*3 12.8 C 0 km/h
242 22-06-2010 00:18:04 12.5 C 6.49 g/m*3 12.5 C 0 km/h
243 22-06-2010 00:30:04 12.2 C 6.58 g/m*3 12.2 C 0 km/h
244 22-06-2010 00:42:04 12.1 C 6.65 g/m*3 12.1 C 0 km/h
245 22-06-2010 00:54:04 12.1 C 6.86 g/m*3 12.1 C 0 km/h
246 22-06-2010 01:06:04 12.2 C 7.01 g/m*3 12.2 C 0 km/h
247 22-06-2010 01:18:04 12.2 C 7.01 g/m*3 12.2 C 0 km/h
248 22-06-2010 01:30:05 12.4 C 6.99 g/m*3 12.4 C 0 km/h
249 22-06-2010 01:42:05 12.2 C 7.01 g/m*3 12.2 C 0 km/h
250 22-06-2010 01:54:05 12.2 C 7.01 g/m*3 12.2 C 0 km/h
Sensor: Nr:Datum:Temp:Abs-Feuchte:Windchill:Wind:
Aussen-T/F 251 22-06-2010 02:06:05 12.1 C 6.97 g/m*3 12.1 C 0 km/h
252 22-06-2010 02:18:05 12.2 C 7.01 g/m*3 12.2 C 0 km/h
253 22-06-2010 02:30:05 12 C 7.03 g/m*3 12 C 0 km/h
254 22-06-2010 02:42:05 11.9 C 7.1 g/m*3 11.9 C 0 km/h
255 22-06-2010 02:54:05 11.9 C 7.2 g/m*3 11.9 C 0 km/h
256 22-06-2010 03:06:05 11.9 C 7.31 g/m*3 11.9 C 0 km/h
257 22-06-2010 03:18:05 11.8 C 7.26 g/m*3 11.8 C 0 km/h
258 22-06-2010 03:30:05 11.7 C 7.22 g/m*3 11.7 C 0 km/h
259 22-06-2010 03:42:05 11.8 C 7.26 g/m*3 11.8 C 0 km/h
260 22-06-2010 03:54:05 11.9 C 7.41 g/m*3 11.9 C 0 km/h
261 22-06-2010 04:06:05 11.5 C 7.33 g/m*3 11.5 C 0 km/h
262 22-06-2010 04:18:05 11.4 C 7.29 g/m*3 11.4 C 0 km/h
263 22-06-2010 04:30:05 11.5 C 7.44 g/m*3 11.5 C 0 km/h
264 22-06-2010 04:42:05 11.5 C 7.44 g/m*3 11.5 C 0 km/h
265 22-06-2010 04:54:05 11.5 C 7.44 g/m*3 11.5 C 0 km/h
266 22-06-2010 05:06:05 11.5 C 7.54 g/m*3 11.5 C 0 km/h
267 22-06-2010 05:18:05 11.4 C 7.49 g/m*3 11.4 C 0 km/h
268 22-06-2010 05:30:05 11.4 C 7.49 g/m*3 11.4 C 0 km/h
269 22-06-2010 05:42:05 11.5 C 7.54 g/m*3 11.5 C 0 km/h
270 22-06-2010 05:54:05 11.4 C 7.39 g/m*3 11.4 C 0 km/h
271 22-06-2010 06:06:06 11.5 C 7.54 g/m*3 11.5 C 0 km/h
272 22-06-2010 06:18:06 11.5 C 7.54 g/m*3 11.5 C 0 km/h
273 22-06-2010 06:30:06 11.6 C 7.69 g/m*3 11.6 C 0 km/h
274 22-06-2010 06:42:03 11.6 C 7.69 g/m*3 11.6 C 0 km/h
275 22-06-2010 06:54:02 11.7 C 7.64 g/m*3 11.7 C 0 km/h
Sensor: Nr:Datum:Temp:Abs-Feuchte:Windchill:Wind:
Aussen-T/F 276 22-06-2010 07:06:02 11.9 C 7.73 g/m*3 11.9 C 0 km/h
277 22-06-2010 07:18:02 12 C 7.67 g/m*3 12 C 0 km/h
278 22-06-2010 07:30:02 12.1 C 7.61 g/m*3 12.1 C 0 km/h
279 22-06-2010 07:42:02 12.4 C 7.65 g/m*3 12.4 C 0 km/h
280 22-06-2010 07:54:01 12.8 C 7.73 g/m*3 12.8 C 0 km/h
281 22-06-2010 08:06:02 13.1 C 7.65 g/m*3 13.1 C 0 km/h
282 22-06-2010 08:18:02 13 C 7.14 g/m*3 13 C 0 km/h
283 22-06-2010 08:30:02 12.9 C 7.44 g/m*3 12.9 C 0 km/h
284 22-06-2010 08:42:02 12.9 C 7.66 g/m*3 12.9 C 0 km/h
285 22-06-2010 08:54:02 13.1 C 7.53 g/m*3 13.1 C 0 km/h
286 22-06-2010 09:06:01 13.5 C 7.49 g/m*3 13.5 C 0 km/h
287 22-06-2010 09:18:02 14.2 C 7.45 g/m*3 14.2 C 0 km/h
288 22-06-2010 09:30:03 15.1 C 7.61 g/m*3 15.1 C 0 km/h
289 22-06-2010 09:42:01 15.8 C 7.4 g/m*3 15.8 C 0 km/h
290 22-06-2010 09:54:02 16.4 C 6.7 g/m*3 16.4 C 0 km/h
291 22-06-2010 10:06:01 17.3 C 6.19 g/m*3 17.3 C 0 km/h
292 22-06-2010 10:18:01 17.9 C 6.11 g/m*3 17.9 C 0 km/h
293 22-06-2010 10:30:01 18.7 C 6.56 g/m*3 18.7 C 0 km/h
294 22-06-2010 10:42:02 19.5 C 6.55 g/m*3 19.5 C 0 km/h
295 22-06-2010 10:54:02 20.2 C 6.47 g/m*3 20.2 C 0 km/h
296 22-06-2010 11:06:01 20.7 C 5.94 g/m*3 20.7 C 0 km/h
297 22-06-2010 11:18:02 20.1 C 6.08 g/m*3 20.1 C 0 km/h
298 22-06-2010 11:30:02 20.4 C 5.84 g/m*3 20.4 C 0 km/h
299 22-06-2010 11:42:02 20.4 C 5.66 g/m*3 20.4 C 0 km/h
300 22-06-2010 11:54:02 19.6 C 5.57 g/m*3 19.6 C 0 km/h
Sensor: Nr:Datum:Temp:Abs-Feuchte:Windchill:Wind:
Aussen-T/F 301 22-06-2010 12:06:03 21.4 C 6 g/m*3 21.4 C 0 km/h
302 22-06-2010 12:18:02 23.3 C 5.23 g/m*3 23.3 C 0 km/h
303 22-06-2010 12:30:02 20.7 C 5.4 g/m*3 20.7 C 0 km/h
304 22-06-2010 12:42:02 19.9 C 5.5 g/m*3 19.9 C 0 km/h
305 22-06-2010 12:54:01 20.1 C 5.21 g/m*3 20.1 C 0 km/h
306 22-06-2010 13:06:02 22.5 C 4.99 g/m*3 22.5 C 0 km/h
307 22-06-2010 13:18:01 20.4 C 5.31 g/m*3 20.4 C 0 km/h
308 22-06-2010 13:30:01 20.7 C 5.4 g/m*3 20.7 C 0 km/h
309 22-06-2010 13:42:01 22.1 C 5.47 g/m*3 22.1 C 0 km/h
310 22-06-2010 13:54:01 22.7 C 5.25 g/m*3 22.7 C 0 km/h
311 22-06-2010 14:06:02 23 C 4.93 g/m*3 23 C 0 km/h
312 22-06-2010 14:18:01 23.1 C 5.37 g/m*3 23.1 C 0 km/h
313 22-06-2010 14:30:01 23.2 C 5.41 g/m*3 23.2 C 0 km/h
314 22-06-2010 14:42:01 23.3 C 5.23 g/m*3 23.3 C 0 km/h
315 22-06-2010 14:54:01 23.9 C 4.98 g/m*3 23.9 C 0 km/h
316 22-06-2010 15:06:02 23.9 C 4.98 g/m*3 23.9 C 0 km/h
317 22-06-2010 15:18:02 24.7 C 4.75 g/m*3 24.7 C 0 km/h
318 22-06-2010 15:30:02 24.9 C 5.49 g/m*3 24.9 C 0 km/h
319 22-06-2010 15:42:01 25 C 5.06 g/m*3 25 C 0 km/h
320 22-06-2010 15:54:02 24.2 C 4.4 g/m*3 24.2 C 0 km/h
321 22-06-2010 16:06:01 23.3 C 4.81 g/m*3 23.3 C 0 km/h
322 22-06-2010 16:18:02 23.4 C 5.26 g/m*3 23.4 C 0 km/h
323 22-06-2010 16:30:02 24.9 C 5.04 g/m*3 24.9 C 0 km/h
324 22-06-2010 16:42:01 26 C 4.87 g/m*3 26 C 0 km/h
325 22-06-2010 16:54:03 23.8 C 4.73 g/m*3 23.8 C 0 km/h
Sensor: Nr:Datum:Temp:Abs-Feuchte:Windchill:Wind:
Aussen-T/F 326 22-06-2010 17:06:02 23.6 C 5.32 g/m*3 23.6 C 0 km/h
327 22-06-2010 17:18:02 22.8 C 5.08 g/m*3 22.8 C 0 km/h
328 22-06-2010 17:30:03 22.7 C 5.25 g/m*3 22.7 C 0 km/h
329 22-06-2010 17:42:02 23.3 C 5.23 g/m*3 23.3 C 0 km/h
330 22-06-2010 17:54:02 24.1 C 5.03 g/m*3 24.1 C 0 km/h
331 22-06-2010 18:06:01 23.7 C 4.92 g/m*3 23.7 C 0 km/h
332 22-06-2010 18:18:02 23.8 C 6.24 g/m*3 23.8 C 0 km/h
333 22-06-2010 18:30:02 23.3 C 6.48 g/m*3 23.3 C 0 km/h
334 22-06-2010 18:42:02 22.6 C 6.63 g/m*3 22.6 C 0 km/h
335 22-06-2010 18:54:01 22.3 C 6.91 g/m*3 22.3 C 0 km/h
336 22-06-2010 19:06:02 22.7 C 6.67 g/m*3 22.7 C 0 km/h
337 22-06-2010 19:18:01 23.3 C 6.27 g/m*3 23.3 C 0 km/h
338 22-06-2010 19:30:01 23.9 C 6.06 g/m*3 23.9 C 0 km/h
339 22-06-2010 19:42:02 24 C 5.87 g/m*3 24 C 0 km/h
340 22-06-2010 19:54:02 23.5 C 6.56 g/m*3 23.5 C 0 km/h
341 22-06-2010 20:06:02 22.8 C 6.5 g/m*3 22.8 C 0 km/h
342 22-06-2010 20:18:01 22.1 C 6.44 g/m*3 22.1 C 0 km/h
343 22-06-2010 20:30:01 21.1 C 6.63 g/m*3 21.1 C 0 km/h
344 22-06-2010 20:42:02 20 C 6.74 g/m*3 20 C 0 km/h
345 22-06-2010 20:54:02 19.2 C 6.76 g/m*3 19.2 C 0 km/h
346 22-06-2010 21:06:02 18.9 C 6.64 g/m*3 18.9 C 0 km/h
347 22-06-2010 21:18:01 18.3 C 6.41 g/m*3 18.3 C 0 km/h
348 22-06-2010 21:30:01 18 C 6.45 g/m*3 18 C 0 km/h
349 22-06-2010 21:42:02 17.6 C 6.45 g/m*3 17.6 C 0 km/h
350 22-06-2010 21:54:02 17.3 C 6.33 g/m*3 17.3 C 0 km/h
Sensor: Nr:Datum:Temp:Abs-Feuchte:Windchill:Wind:
Aussen-T/F 351 22-06-2010 22:06:02 16.8 C 6.72 g/m*3 16.8 C 0 km/h
352 22-06-2010 22:18:02 16.7 C 6.82 g/m*3 16.7 C 0 km/h
353 22-06-2010 22:30:02 16.3 C 6.8 g/m*3 16.3 C 0 km/h
354 22-06-2010 22:42:02 16 C 6.81 g/m*3 16 C 0 km/h
355 22-06-2010 22:55:05 15.8 C 6.87 g/m*3 15.8 C 0 km/h
356 22-06-2010 23:07:05 15.5 C 7.01 g/m*3 15.5 C 0 km/h
357 22-06-2010 23:19:05 15.2 C 6.88 g/m*3 15.2 C 0 km/h
358 22-06-2010 23:31:05 14.9 C 6.88 g/m*3 14.9 C 0 km/h
359 22-06-2010 23:43:05 14.7 C 7.05 g/m*3 14.7 C 0 km/h
360 22-06-2010 23:55:05 14.6 C 7.13 g/m*3 14.6 C 0 km/h

Legende:
   Min
   Max


Maximal/Minimal-Werte vom 14.04.2020 - 16.05.2020

Sensor Min Max Avg
Temp
(Aussen-T/F)
-0.1 °C
15-04-2020  06:55:00
26.2 °C
17-04-2020  18:05:00
11.98 °C

Die Daten stammen von einer Davis Vantage Pro 2 Wetter-Station und werden unter Linux mit der Software wview2wettercgi und aufbereitet. Alle Angaben erfolgen ohne Gewähr für ihre Vollständigkeit oder Richtigkeit.
Kontakt: Rainer Krienke krienke@uni-koblenz.de . Meine Webseiten an der Uni Koblenz oder privat.
Version: $Revision: 0.78 $